GFSSE_sfc_30mbdewp_147.txt.gz
Dewpoint
67 70 71 71 71 71 70 70 69 70 71 71 70 70 70 71 72 72 72 72 71 70 69 70 70 69 69 69 70 69 70 70 69 70 69 69 68 69 69 68 68 68 67
69 71 71 71 71 71 70 70 70 70 70 71 71 70 70 70 71 71 71 71 70 69 69 70 70 69 69 69 69 69 70 70 69 69 70 69 69 68 68 68 67 67 67
69 71 71 71 70 70 70 70 71 70 70 70 71 71 70 70 71 71 71 71 71 70 70 70 69 69 69 69 69 69 69 69 69 69 69 68 68 68 68 68 67 66 66
69 71 71 71 71 70 70 70 71 71 70 70 70 71 71 71 71 71 71 71 71 71 70 69 69 69 69 68 68 68 68 67 66 67 67 67 67 68 68 67 67 66 66
69 70 70 71 71 71 70 70 70 71 70 70 70 71 71 71 71 71 70 71 71 71 70 69 69 69 68 68 68 68 68 66 65 64 66 67 67 67 67 67 67 66 66
68 69 70 71 71 71 71 70 70 71 70 70 70 71 71 71 71 70 70 70 71 71 71 70 69 68 68 68 68 67 66 65 63 64 65 67 67 67 67 67 66 66 66
68 68 69 70 71 71 71 71 71 70 70 70 70 70 71 71 71 70 70 70 71 71 71 70 68 67 67 67 67 66 65 63 61 63 65 66 67 67 67 66 66 67 65
67 68 69 70 70 71 71 71 71 70 70 70 70 70 71 71 70 70 70 70 70 71 70 68 67 67 67 66 66 65 65 64 63 63 65 65 67 66 66 66 66 66 67
68 68 68 69 70 70 71 71 70 70 70 70 70 70 70 70 69 69 70 70 70 70 69 67 67 66 66 66 65 64 63 63 64 62 64 65 68 67 66 66 66 67 67
47 49 58 67 68 69 69 70 70 70 69 69 69 69 70 70 69 69 69 70 70 70 68 67 66 66 66 65 64 63 62 62 63 62 64 65 67 67 66 66 66 67 67
40 41 42 45 48 62 68 69 70 70 70 69 69 69 69 69 69 69 69 69 70 69 68 67 66 66 65 64 64 62 61 60 62 64 64 65 66 67 66 66 67 67 66
36 37 37 42 47 47 59 68 69 69 69 69 69 69 69 69 69 69 69 69 69 69 68 66 66 65 65 64 63 62 60 62 63 63 63 64 66 67 66 67 67 66 65
33 34 35 39 42 45 49 56 68 69 68 68 67 68 68 68 69 69 68 69 69 69 67 66 66 65 64 63 62 61 60 61 63 63 63 64 66 66 67 67 66 65 65
31 32 34 37 39 41 46 48 50 52 65 68 67 67 67 67 67 68 67 67 67 68 66 65 65 64 63 62 61 61 60 60 63 63 63 63 64 65 66 66 66 65 64
30 31 33 34 35 39 40 43 46 48 52 59 67 68 68 67 67 67 66 66 66 66 66 65 64 64 63 62 62 61 60 60 62 62 62 63 64 65 66 65 65 65 64
30 30 32 32 34 35 36 39 42 47 50 51 59 68 67 68 67 67 66 66 65 65 65 65 64 63 63 62 61 62 61 60 61 62 62 63 63 64 65 66 65 65 64
30 30 31 31 32 32 35 37 40 43 46 50 51 56 67 65 65 66 66 66 66 65 65 65 64 63 62 62 61 62 62 62 62 62 62 62 63 63 63 64 65 65 64
29 29 30 31 32 32 34 37 39 42 44 46 49 53 61 66 65 66 65 66 66 65 65 64 63 62 62 61 60 61 62 62 62 62 61 62 62 63 63 63 64 65 65
29 29 29 30 31 32 33 36 38 39 40 44 46 49 50 60 66 64 65 65 66 66 65 64 63 62 61 60 60 60 61 62 61 61 61 61 61 62 63 63 63 64 64
29 29 30 30 31 32 33 35 36 37 38 41 44 47 49 50 58 64 64 66 66 66 65 64 63 62 60 60 60 59 60 62 61 60 60 60 61 61 61 61 62 63 63
29 29 30 30 31 32 32 32 34 35 37 39 42 45 48 51 53 63 64 64 65 65 64 64 63 62 61 61 60 60 60 61 61 59 60 60 59 60 60 60 60 62 62
29 30 30 30 30 31 32 33 34 35 37 39 42 45 47 49 51 55 63 63 63 64 62 64 63 62 61 61 59 58 57 58 60 61 58 59 59 59 59 59 59 60 61
29 29 29 29 30 31 31 33 33 34 37 38 39 40 43 46 49 51 52 62 63 63 62 60 63 62 61 61 60 57 55 54 56 58 59 59 58 59 59 59 59 59 59
29 29 29 30 30 31 31 32 32 32 34 37 39 41 42 44 47 50 52 57 62 62 62 62 63 63 62 60 61 60 57 55 54 53 57 59 59 58 59 60 60 59 59
29 29 29 30 30 31 32 32 33 32 34 36 37 39 41 42 45 48 52 56 61 61 60 62 61 63 63 60 60 60 58 55 55 53 52 56 58 59 59 59 60 60 60
28 28 28 28 29 30 30 31 31 32 34 35 36 37 40 41 42 45 50 54 58 60 60 60 59 60 62 62 61 60 59 56 55 54 52 55 56 58 60 60 60 60 61

GFSSE_sfc_30mbdewp_150.txt.gz
Dewpoint
65 68 70 70 70 70 70 70 71 70 70 71 72 72 72 72 72 72 72 72 71 70 69 70 69 69 69 70 70 71 71 70 70 69 69 68 68 69 69 69 67 66 66
67 70 71 70 70 70 70 70 70 71 70 70 71 71 72 72 72 72 72 71 70 69 69 70 69 69 69 69 70 70 70 69 70 69 70 69 68 68 68 68 67 67 66
70 71 71 71 70 71 70 70 70 71 71 70 70 70 70 71 71 71 71 71 70 70 70 70 69 69 69 69 69 70 69 69 69 69 69 68 68 68 68 67 67 67 66
70 71 71 71 70 70 70 70 71 70 71 71 70 70 70 70 70 71 70 70 70 70 70 69 69 69 69 69 68 69 69 68 68 68 67 67 67 68 67 67 67 67 66
69 70 71 71 71 70 70 70 71 70 70 71 71 71 71 70 71 71 70 71 71 71 70 69 69 69 68 68 67 68 66 66 66 66 66 67 67 68 67 67 67 67 65
68 69 70 71 71 71 71 70 70 70 69 70 71 71 71 71 71 71 70 71 71 71 70 69 69 68 68 68 67 67 66 65 65 64 66 67 67 67 67 67 67 66 66
67 68 69 70 71 71 71 70 70 70 69 69 70 71 71 71 71 70 69 70 71 71 71 70 68 67 67 67 67 67 65 63 62 63 65 67 67 67 67 66 67 66 66
45 50 60 65 68 70 71 71 70 70 70 69 70 70 71 71 70 69 69 70 71 71 70 69 67 67 67 67 67 66 65 63 62 63 65 66 67 67 66 66 67 65 64
39 39 44 47 49 58 69 69 70 70 70 69 69 70 70 70 70 69 69 69 70 71 69 68 67 67 66 66 66 65 64 64 63 63 65 65 67 67 66 66 66 66 67
35 35 37 42 44 48 58 68 69 69 69 69 69 69 70 70 69 69 69 69 70 70 69 67 66 66 66 66 65 64 63 62 63 62 64 64 67 67 66 66 66 67 67
33 34 35 39 39 44 47 51 67 69 69 68 69 69 69 69 69 69 69 69 69 69 68 67 66 66 65 65 64 63 62 61 62 62 64 64 66 67 67 66 67 67 67
31 32 34 36 37 40 42 46 49 54 67 68 69 68 68 68 69 68 69 69 69 69 68 67 66 65 65 64 64 63 61 60 62 62 63 64 66 67 67 67 67 67 66
31 31 33 34 35 37 37 42 46 48 51 60 67 68 68 68 68 68 68 68 69 69 68 67 66 65 64 63 62 62 61 60 62 63 63 64 65 67 66 66 67 66 66
30 31 32 33 33 34 36 39 42 43 48 51 52 58 67 67 67 66 67 66 67 67 66 66 65 65 64 63 62 61 61 59 62 63 63 63 64 65 66 66 66 66 66
29 29 31 31 33 33 34 37 38 42 45 47 49 52 55 66 67 67 66 66 66 66 66 65 65 64 63 63 62 61 60 59 61 63 63 63 63 65 67 66 66 66 65
29 29 30 30 32 33 33 35 38 41 43 45 47 49 50 54 64 66 66 66 66 66 65 65 64 64 63 62 62 61 60 60 60 62 62 62 62 63 64 65 66 65 65
29 29 30 30 31 32 32 34 37 38 41 41 44 47 49 50 51 59 65 65 66 66 65 65 64 63 62 62 61 61 61 61 59 61 62 62 62 62 63 63 63 66 65
29 29 30 31 31 32 32 34 35 37 38 40 42 44 46 48 50 51 56 65 65 66 65 64 64 62 62 61 61 61 61 62 62 61 62 62 62 62 62 63 64 65 65
29 29 30 31 31 31 33 33 34 36 37 38 40 42 45 46 47 50 52 56 65 66 65 64 64 63 61 61 60 60 60 61 62 62 62 62 62 62 62 62 62 63 65
29 30 30 30 31 31 32 33 33 34 36 37 38 40 43 45 48 48 51 56 63 65 65 64 64 63 62 61 60 59 59 60 61 62 62 61 61 61 62 62 62 62 63
29 29 29 30 31 31 31 31 32 32 34 36 38 40 40 42 45 46 48 51 52 63 64 64 61 60 62 61 59 58 58 60 61 61 61 61 61 61 61 62 61 62 62
29 29 29 30 30 31 31 31 32 33 34 34 35 37 39 41 43 43 46 49 51 52 61 63 60 62 62 61 58 57 54 56 59 60 60 60 60 60 60 61 61 61 62
29 29 29 29 30 30 31 31 31 32 33 33 34 35 37 39 42 42 44 47 50 52 54 61 63 63 61 61 60 56 54 52 54 58 60 60 59 59 59 59 60 60 60
27 28 28 29 29 29 30 31 30 30 30 33 34 36 36 38 41 41 41 45 48 52 56 60 62 62 62 59 61 60 58 56 54 53 57 60 59 58 58 59 59 59 59
27 27 28 29 29 29 29 30 30 30 32 32 34 35 36 37 38 40 42 43 46 51 54 59 60 60 59 58 59 58 59 56 55 53 52 56 59 59 58 59 59 59 59
27 27 28 28 28 29 29 30 30 30 31 31 31 33 35 36 37 38 40 42 45 47 50 56 60 60 59 59 57 59 58 56 55 53 52 54 55 57 59 59 59 60 60

GFSSE_sfc_30mbdewp_153.txt.gz
Dewpoint
64 67 71 71 70 70 70 70 70 71 72 72 72 71 71 72 72 72 72 71 71 70 70 70 69 69 70 70 71 71 71 70 69 69 69 69 69 68 69 68 67 63 67
69 70 71 71 70 70 70 70 70 71 72 72 72 72 71 72 72 72 72 71 70 69 70 69 69 69 70 70 70 70 70 70 70 70 69 69 68 68 68 67 65 64 67
70 70 70 70 70 70 70 70 71 70 71 71 72 72 72 72 72 72 71 70 70 70 70 69 69 69 69 70 69 70 69 69 69 70 69 64 65 68 67 67 67 67 67
69 70 70 70 70 70 70 70 70 71 70 70 70 71 71 71 71 71 71 70 70 70 70 69 69 69 69 69 69 69 69 69 69 68 66 65 64 68 67 67 67 66 67
69 70 70 71 71 70 70 70 70 70 70 69 69 70 70 71 71 71 70 70 70 71 70 69 69 69 69 68 68 68 67 68 67 66 66 65 63 67 67 67 67 66 65
52 58 59 62 68 71 71 70 71 70 70 70 70 70 70 70 71 70 70 70 71 71 70 69 69 68 68 67 67 67 65 67 65 65 66 65 64 67 67 67 66 66 66
44 46 49 54 58 65 70 71 70 70 70 70 70 71 71 71 71 70 70 70 71 71 71 70 69 68 68 67 67 67 66 65 63 64 65 65 65 67 67 67 67 67 66
39 42 44 45 49 55 62 68 69 70 70 69 69 70 71 71 70 70 69 70 71 71 71 69 68 67 67 67 67 66 65 63 62 63 64 65 66 68 67 67 67 66 66
37 38 41 41 43 47 51 57 64 68 69 69 69 69 70 70 70 69 69 69 70 71 70 69 67 67 67 67 66 66 65 63 62 63 63 64 66 68 67 67 67 65 65
34 35 36 37 38 41 44 47 52 57 67 68 68 68 68 69 70 69 69 69 70 70 70 68 67 67 66 66 66 65 64 64 63 63 62 63 66 67 67 67 66 65 66
33 33 34 35 36 37 36 41 45 50 52 61 68 68 68 68 68 68 68 68 69 70 69 68 67 66 66 65 65 64 63 62 62 62 62 64 66 67 67 67 67 66 66
30 31 32 35 35 35 34 39 41 43 47 52 54 56 67 68 68 68 67 68 68 69 69 68 66 66 65 63 63 64 62 61 61 61 62 64 65 67 67 66 66 67 66
30 30 31 33 35 35 35 37 38 40 44 47 48 52 56 64 68 67 68 68 68 68 68 68 66 65 63 63 62 62 61 62 61 62 60 63 64 66 66 67 67 66 66
29 30 31 32 34 34 35 35 37 39 42 42 45 48 49 52 56 67 67 67 67 67 67 67 67 65 64 64 63 62 62 60 60 62 61 63 63 66 66 66 66 66 66
29 30 31 32 33 34 34 36 37 38 40 42 42 44 47 49 52 54 60 67 67 66 66 66 66 66 64 63 63 62 61 60 60 62 62 63 63 64 66 66 65 65 66
29 30 32 32 33 33 34 35 36 37 38 39 41 43 45 47 48 50 52 54 66 67 66 66 65 65 64 63 62 62 61 60 59 60 62 62 62 63 64 65 67 66 66
29 30 31 32 33 33 34 35 35 36 38 38 39 42 43 46 47 48 49 51 52 60 66 65 66 65 65 63 62 61 61 60 59 59 61 62 62 62 63 64 66 66 66
29 30 31 32 33 33 34 34 35 35 36 37 38 39 42 43 44 46 49 51 53 55 61 66 65 63 64 63 62 61 60 60 59 59 58 62 61 61 62 63 63 64 65
30 30 31 32 32 33 33 34 34 35 35 36 37 38 40 41 42 44 45 47 50 52 57 64 64 63 63 63 62 61 60 59 59 59 58 59 62 61 61 61 62 63 64
30 30 31 31 32 33 33 33 34 34 35 35 36 36 38 39 40 42 44 46 48 50 53 56 62 62 61 63 62 61 60 60 59 59 59 59 60 62 62 61 61 61 62
29 30 30 31 31 31 31 31 32 32 33 33 34 35 36 38 39 40 41 42 44 46 50 52 53 62 62 62 61 61 60 60 59 59 60 61 61 61 61 61 61 60 60
28 29 29 30 30 30 31 31 32 32 32 34 34 35 36 37 38 39 41 41 42 44 46 51 53 56 61 60 59 59 57 58 59 60 59 60 61 61 61 61 61 60 60
27 28 29 30 30 30 31 31 31 32 32 32 33 34 34 36 37 38 40 41 43 44 45 48 52 55 59 60 61 58 55 53 55 58 59 59 60 61 61 60 61 61 61
27 28 28 29 29 30 31 30 31 31 31 31 32 33 34 34 36 37 39 39 41 42 43 46 50 55 57 57 59 60 59 58 52 53 58 59 59 60 61 60 60 61 60
26 27 28 29 29 30 30 30 31 31 31 31 32 32 32 33 34 35 37 38 39 41 43 45 47 50 55 59 59 59 59 59 58 55 53 57 60 59 60 61 60 61 60
26 27 27 28 28 29 29 30 30 30 31 30 31 31 31 32 32 33 35 36 36 38 40 42 43 46 49 54 59 59 58 55 54 55 53 54 56 59 60 60 61 61 61

GFSSE_sfc_30mbdewp_156.txt.gz
Dewpoint
64 69 71 70 70 70 69 70 71 72 72 71 71 71 71 72 72 72 72 71 71 70 70 69 69 70 70 70 70 71 71 70 70 70 69 69 68 68 68 67 65 63 68
68 70 71 70 70 70 70 70 70 72 72 72 72 71 71 72 71 72 71 71 70 70 69 69 69 69 70 70 71 70 70 69 69 70 70 69 68 68 68 66 65 65 68
68 68 69 71 70 70 70 70 70 70 72 72 72 71 71 72 72 72 71 70 70 69 69 69 69 69 70 70 69 69 69 69 70 70 69 62 63 68 67 67 66 66 67
63 62 65 70 71 70 70 70 70 70 70 71 72 72 72 72 72 71 70 70 70 70 70 69 69 69 69 69 69 69 69 69 69 68 63 60 61 67 67 67 67 66 66
53 56 58 61 66 71 70 70 71 70 70 69 70 71 71 71 72 71 70 69 70 70 70 69 69 69 69 69 69 69 68 68 67 65 61 61 60 66 67 67 66 66 65
48 51 52 56 60 63 69 71 70 70 70 70 70 70 70 70 71 71 70 69 70 71 70 70 69 69 68 68 68 67 67 67 66 61 63 62 61 67 67 67 65 65 65
46 47 49 50 54 57 61 63 68 70 70 69 70 69 69 69 70 70 69 70 70 71 71 71 70 68 68 67 67 66 65 66 63 60 61 61 61 67 67 67 66 66 65
44 45 46 45 48 50 53 56 59 63 69 70 69 69 69 69 69 69 70 70 70 71 71 70 69 68 68 67 67 66 66 64 62 60 60 61 65 67 67 67 67 66 65
39 41 42 42 43 45 47 49 52 55 60 65 68 69 69 68 68 69 69 69 70 70 71 70 69 67 67 67 67 66 66 64 62 59 60 60 65 67 67 67 67 66 65
36 37 38 39 40 41 42 44 47 49 53 58 59 63 67 68 68 68 69 69 69 70 70 70 69 67 67 66 66 66 65 64 62 59 59 60 65 67 67 67 67 66 65
33 33 36 37 39 38 36 40 43 45 48 52 53 56 62 67 66 66 67 67 68 68 69 70 69 67 66 66 66 65 65 61 59 59 57 64 65 67 67 67 67 66 65
32 32 33 37 38 38 35 39 39 41 44 46 48 51 54 60 62 67 67 67 67 67 68 69 69 67 66 62 60 64 62 59 58 58 57 63 64 67 67 68 67 67 66
31 33 33 36 38 38 37 37 38 39 42 42 44 48 47 49 57 59 63 67 67 67 66 66 66 66 63 61 57 58 59 59 58 57 57 63 64 66 66 67 67 67 66
31 33 34 35 38 38 38 37 38 39 40 41 42 45 46 45 47 51 57 56 63 66 67 66 65 64 62 61 60 59 59 58 57 56 57 61 63 65 66 67 67 67 67
31 33 35 35 37 37 38 39 39 39 40 41 41 43 46 46 46 48 48 52 56 56 65 66 66 64 63 62 61 61 59 59 58 56 57 61 62 64 66 66 67 66 66
31 33 35 35 37 37 37 38 38 39 39 39 40 43 45 46 46 46 46 46 47 54 57 57 65 66 65 63 61 61 60 58 57 57 57 59 62 62 64 65 66 66 66
31 33 34 34 37 37 37 37 37 38 38 38 39 41 43 44 44 44 44 45 47 49 52 57 58 65 66 65 62 61 61 60 57 56 56 56 60 62 63 64 65 65 66
31 33 34 35 36 37 37 37 37 38 38 38 38 39 40 42 42 42 42 43 46 48 48 50 58 62 65 65 63 64 61 60 58 58 56 56 56 57 61 63 64 65 65
31 33 33 35 36 36 36 36 37 37 37 37 37 37 39 39 41 41 41 43 44 45 47 48 51 59 63 63 64 63 62 61 60 56 56 55 56 57 56 60 62 63 64
31 32 33 34 35 35 35 35 35 35 36 36 36 37 39 38 39 40 40 41 42 42 44 46 49 54 57 60 62 61 62 62 61 57 56 55 55 57 58 56 61 61 63
30 31 32 32 34 33 32 33 34 34 35 35 35 37 37 38 38 39 39 39 40 41 43 44 46 49 54 56 60 60 60 61 61 60 57 55 55 55 58 59 57 59 60
29 31 31 31 32 32 32 33 34 34 34 35 35 36 36 37 37 37 38 39 40 41 42 43 44 47 50 56 58 58 56 58 61 61 60 57 57 56 55 59 59 58 57
28 30 29 31 31 32 33 32 33 34 33 33 33 34 35 35 36 36 37 38 38 39 40 42 43 45 46 51 56 57 53 52 55 59 60 59 58 59 58 57 60 60 59
28 29 30 31 30 31 33 32 33 32 31 32 33 33 34 35 35 35 35 35 36 37 38 39 41 44 46 46 50 57 59 56 54 52 58 59 59 59 60 59 59 60 59
27 28 30 30 30 31 32 32 32 32 32 32 32 32 33 34 34 33 34 34 34 35 36 37 38 40 42 42 45 48 55 58 57 55 53 57 59 59 59 61 59 60 61
26 28 29 29 29 30 31 31 31 31 31 31 31 31 31 32 32 33 32 32 33 33 34 35 36 38 39 41 44 46 49 54 56 55 55 55 57 59 60 59 60 61 61

GFSSE_sfc_30mbdewp_159.txt.gz
Dewpoint
67 68 71 70 69 70 70 71 72 72 71 71 71 72 72 72 72 71 71 71 72 70 70 69 69 70 70 70 70 71 70 70 70 69 69 69 68 67 67 66 66 64 68
66 68 70 70 70 70 70 70 71 72 72 72 71 71 72 72 71 71 71 71 71 70 69 69 69 69 70 70 71 70 69 69 69 70 69 68 68 67 67 66 66 66 68
61 63 65 68 70 70 70 70 70 70 72 72 72 71 71 72 72 71 71 71 70 70 69 69 69 69 70 70 70 70 69 69 69 69 69 64 63 68 66 67 66 67 67
58 59 62 64 67 71 71 71 70 70 70 71 72 71 71 72 72 72 71 70 70 69 69 69 69 69 69 69 69 69 69 69 69 68 65 64 61 67 67 67 66 66 67
55 55 57 60 63 65 67 69 71 70 69 69 70 71 71 70 71 71 71 70 69 69 69 69 69 69 69 69 69 69 69 69 68 66 64 59 61 66 67 67 66 66 65
53 55 52 55 58 61 63 64 66 69 70 69 70 69 70 70 71 71 71 70 70 70 70 70 69 70 68 68 68 68 68 67 66 60 59 61 62 65 67 67 66 64 65
51 52 51 51 52 54 57 59 60 63 66 69 70 70 69 69 70 70 70 69 69 70 70 71 70 69 68 67 68 67 66 66 63 61 56 57 64 67 67 66 66 65 65
47 48 48 48 48 49 50 53 54 57 60 63 65 69 70 70 69 70 69 69 69 70 71 71 70 69 68 67 67 67 65 65 62 57 56 59 65 67 67 67 67 65 65
42 43 44 45 46 47 49 47 50 51 54 57 58 60 63 67 69 69 69 69 69 69 70 71 70 69 67 67 67 67 66 66 64 60 56 56 66 67 67 67 67 66 66
38 39 41 42 43 43 43 44 48 48 50 53 53 55 58 66 67 67 68 68 68 69 69 70 70 69 67 67 67 67 66 66 63 59 55 61 65 66 67 67 67 67 66
35 35 40 40 42 41 37 41 44 45 48 48 49 52 54 60 64 65 66 66 67 67 68 69 69 69 67 66 66 66 66 63 59 57 54 63 65 66 67 68 67 67 66
34 34 36 41 42 41 37 40 40 41 44 45 47 49 48 49 52 58 63 63 67 67 67 68 68 69 67 64 62 65 63 60 58 56 53 64 65 66 67 68 68 67 65
33 35 36 40 42 42 40 39 40 40 42 43 45 48 48 48 48 48 50 59 62 64 67 66 66 66 63 62 59 59 61 60 58 56 54 63 64 66 66 69 68 67 66
33 36 36 39 41 42 41 40 40 40 41 42 43 46 47 47 47 49 48 48 49 59 59 63 67 65 65 63 61 60 58 57 57 57 55 62 63 65 67 68 68 67 67
33 36 38 38 41 41 41 41 41 41 41 42 41 44 47 47 46 47 47 47 47 47 52 59 59 62 66 64 64 60 59 58 58 57 56 62 63 64 67 67 68 67 67
33 35 38 37 41 41 40 41 40 41 41 40 41 44 45 45 45 45 45 45 45 46 48 50 54 60 60 65 65 64 63 59 58 58 57 60 61 62 65 67 68 68 67
33 35 37 36 40 41 40 40 39 40 40 40 40 41 43 44 44 44 43 43 44 47 48 48 48 50 59 62 65 65 63 63 60 58 57 57 60 61 62 64 66 67 67
33 35 37 38 39 40 40 39 39 40 40 39 39 39 42 42 42 42 41 42 44 44 44 45 47 48 50 58 62 65 65 63 63 61 59 57 57 60 62 62 64 66 67
33 34 35 37 38 38 39 38 39 39 39 38 38 39 41 40 41 41 40 41 42 42 42 43 43 46 49 53 58 61 63 63 63 63 61 59 58 57 60 62 62 63 65
32 34 34 35 37 37 36 36 37 37 37 38 37 39 40 40 40 39 39 40 41 40 40 43 44 44 46 47 51 55 60 62 64 63 61 59 58 58 58 60 62 62 63
32 33 33 34 35 34 33 34 35 35 36 37 37 38 38 39 40 39 38 39 39 39 40 41 42 43 43 45 49 52 56 58 61 62 62 61 58 57 58 58 61 61 61
31 32 32 32 33 33 33 33 35 36 36 36 36 37 37 38 39 37 37 37 37 37 39 39 40 41 42 44 46 47 50 53 57 60 62 61 60 58 56 58 59 61 60
31 32 31 32 32 33 35 33 35 34 34 34 34 34 36 37 37 37 37 36 36 36 36 37 37 39 39 40 44 46 48 48 49 55 60 61 60 59 58 57 58 60 60
30 32 31 32 32 32 34 33 34 33 33 34 34 34 35 36 36 36 35 35 35 35 35 36 36 37 38 38 41 42 45 45 48 51 53 60 61 60 60 58 57 59 60
29 30 32 31 31 32 33 33 33 33 33 33 33 34 34 34 35 34 34 34 33 33 33 34 35 35 36 38 39 40 42 43 46 51 52 55 59 61 60 60 59 59 60
28 30 31 30 30 32 32 32 32 32 32 32 32 32 32 33 33 33 32 33 33 33 32 32 33 34 34 36 37 39 41 42 45 46 49 53 54 58 60 60 61 60 61

GFSSE_sfc_30mbdewp_162.txt.gz
Dewpoint
64 68 70 71 71 71 71 71 72 72 71 71 71 71 71 71 71 71 71 71 71 70 69 69 69 70 70 70 70 71 70 70 70 69 69 68 68 67 67 67 67 66 68
62 66 67 70 71 71 71 71 71 72 72 71 71 71 71 71 71 71 71 71 71 70 69 68 68 69 70 70 70 70 69 68 69 69 69 68 67 67 67 67 66 66 67
60 62 64 67 69 70 71 71 71 70 71 72 71 71 71 71 71 71 71 71 70 70 69 68 68 69 69 69 70 69 69 68 68 69 70 66 67 67 67 66 65 66 67
57 58 61 63 66 68 68 70 71 70 70 70 71 71 71 71 71 71 71 70 70 69 69 69 68 69 69 69 69 69 69 68 68 68 67 67 64 67 67 67 67 67 67
55 54 57 59 62 64 65 66 68 69 70 70 69 70 71 71 71 71 71 70 69 69 69 69 69 69 69 68 69 68 69 68 68 67 64 64 64 66 66 66 67 67 65
55 53 53 55 56 59 61 62 64 65 67 68 70 70 69 69 70 71 71 71 70 69 69 69 70 70 69 68 68 68 68 68 67 65 63 63 64 67 67 66 67 65 65
52 52 51 51 53 52 56 57 58 60 62 64 66 68 69 70 70 70 70 69 69 69 70 71 71 70 68 67 67 68 67 66 66 63 63 63 65 66 67 66 66 65 65
49 50 49 49 51 51 48 50 52 54 57 58 59 60 63 66 69 69 70 69 69 69 69 70 70 70 69 67 67 67 66 65 63 63 61 65 66 68 67 67 66 65 65
45 47 48 48 47 52 46 48 48 50 52 53 57 54 56 62 67 68 68 68 69 69 69 69 70 70 69 67 67 67 66 66 65 64 63 64 67 68 67 67 66 66 66
40 44 45 46 46 46 46 45 48 49 51 52 54 53 54 57 58 65 66 66 67 68 68 69 69 70 69 67 67 67 66 66 66 64 62 63 67 68 67 67 67 66 66
38 39 44 44 45 45 41 44 46 47 49 49 51 53 52 53 54 52 60 63 64 66 68 68 68 69 69 68 67 66 66 66 64 62 61 64 67 68 68 68 67 67 66
36 36 41 45 46 45 40 44 44 46 47 49 51 51 51 52 53 52 53 53 61 63 65 67 67 67 67 68 66 66 65 65 63 61 59 63 66 68 69 68 68 67 66
36 37 39 44 45 45 43 44 44 45 47 47 49 50 50 51 52 52 51 52 52 55 62 62 65 67 67 66 65 63 65 64 62 60 58 64 67 68 69 69 68 67 67
36 38 39 43 45 46 44 44 44 44 45 45 47 49 49 48 49 49 49 49 50 50 51 60 61 61 62 65 66 64 65 64 62 61 59 63 67 68 68 69 69 68 67
35 39 40 42 44 44 45 45 44 45 44 45 46 47 47 47 48 48 48 48 48 49 50 51 51 53 56 61 63 66 65 64 66 62 60 62 65 67 68 68 68 68 67
35 38 39 40 44 43 43 44 44 45 44 43 44 46 46 47 46 45 46 46 46 48 48 47 48 50 51 54 61 63 65 65 64 65 59 62 63 65 67 67 69 68 68
35 37 38 39 42 43 43 43 43 44 43 42 43 45 45 45 44 44 44 44 45 45 45 45 46 46 48 51 52 58 62 65 64 63 63 59 61 63 65 66 67 68 68
35 36 39 39 41 41 42 42 42 43 42 42 42 43 44 44 44 42 42 43 44 44 43 44 44 44 45 46 47 50 53 57 63 64 63 63 60 61 63 65 66 67 68
34 36 37 39 39 40 40 40 41 42 41 41 41 42 42 42 43 42 41 42 42 42 42 42 42 43 42 43 44 46 47 51 56 63 63 63 62 60 61 62 64 65 67
34 35 35 37 38 38 38 38 39 40 40 40 40 41 42 41 42 41 40 40 40 39 39 40 41 42 42 42 43 43 45 49 51 56 63 62 62 61 60 61 62 62 65
34 34 34 35 37 36 35 36 37 37 38 39 39 40 40 41 40 39 38 37 37 37 37 37 38 38 39 41 42 42 42 43 45 52 59 63 63 61 59 58 62 61 62
33 33 33 33 35 35 35 36 37 38 38 38 38 39 39 39 39 37 37 37 36 36 36 36 35 35 37 37 38 39 40 41 48 50 55 59 62 62 60 60 58 62 61
33 33 32 33 33 35 36 36 37 37 36 36 36 36 38 38 38 38 36 35 35 35 35 35 34 34 35 36 37 39 38 39 40 43 45 51 59 61 61 61 59 59 62
32 33 33 32 33 34 35 35 35 34 33 34 35 36 36 37 37 36 35 34 34 34 34 33 33 33 34 34 36 37 39 39 38 39 42 45 47 55 59 59 60 59 60
30 33 33 32 32 33 34 34 34 34 34 34 34 34 34 35 35 35 33 34 34 34 32 33 33 33 33 34 35 36 36 38 38 40 39 42 48 50 58 60 60 60 59
31 32 32 31 31 33 33 34 34 33 33 32 32 32 32 33 33 33 32 32 32 33 33 32 33 33 33 34 34 34 35 36 37 38 39 41 44 46 50 57 59 60 61